Simultaneous Nadir Overpasses (SNOs) Predictions

Prediction of SNOs between LANDSAT-8 and METOP-B Satellite Orbit:

Table of predicted SNOs for the next 14.0 days since TLE Epoch: 3/14/2015
Index Date (LANDSAT-8) Time (LANDSAT-8) Lat,Lon (LANDSAT-8) SZA (LANDSAT-8 ) Date (METOP-B) Time (METOP-B) Lat,Lon (METOP-B) SZA (METOP-B ) Distance(km) Time Diff (sec)
1 03/15/2015 08:26:42 -81.03, -88.68 95.12 03/15/2015 08:25:47 -81.03, -88.54 95.12 2.57 55
2 03/15/2015 09:16:07 81.06, 79.34 84.93 03/15/2015 09:16:26 81.06, 79.46 84.95 2.01 19
3 03/18/2015 04:00:58 -81.02, -22.39 96.23 03/18/2015 04:00:12 -81.03, -22.26 96.22 2.44 46
4 03/18/2015 04:50:23 81.05, 145.62 83.82 03/18/2015 04:50:51 81.05, 145.69 83.84 1.39 28
5 03/20/2015 23:35:15 -81.03, 44.14 97.30 03/20/2015 23:34:37 -81.02, 43.97 97.34 3.00 38
6 03/21/2015 00:24:40 81.05,-147.86 82.75 03/21/2015 00:25:15 81.06,-147.76 82.77 1.90 35
7 03/23/2015 19:09:34 -81.03, 110.54 98.39 03/23/2015 19:09:01 -81.03, 110.51 98.40 0.48 33
8 03/23/2015 19:58:58 81.05, -81.47 81.66 03/23/2015 19:59:39 81.05, -81.63 81.65 2.84 41
9 03/26/2015 14:43:54 -81.02, 176.81 99.49 03/26/2015 14:43:25 -81.01, 176.63 99.52 3.17 29




NCC Satellite Simultaneous Nadir Overpasses (SNOs) Prediction Service
